www.pogodaiklimat.ru

Погода и климат >> Архив погоды >> Ирак >> Azizyah


ПОГОДА в Azizyah

  • Прогноз погоды в Azizyah
  • Монитор погоды в Azizyah
  • Климат города

АРХИВ ПОГОДЫ в Azizyah

Время (UTC), дата Ветер
(напр.,м/с)
 
Видим.   Явления Облачность Т
(С)
Тd
(С)
f
(%)
Тe
(С)
Тes
(С)
Комфортность P
(гПа)
Po
(гПа)
Тmin
(С)
Tmax
(С)
R
(мм)
R24
(мм)
S
(см)
06 6.12 Ю 3 6000 м дымка {гроза, дождь} 10/10 750 м
[Cu Sc]
+15.0 +14.1 94 +14 +14 1011.3 1011.0 +13.2 6
09 6.12 Ю 2 5000 м слабый дождь {гроза} 10/8 750 м
[Frnb As op]
+15.0 +15.0 100 +15 +15 1009.9 1010.0
12 6.12 Ю 1 10 км 3/0
[Ci sp]
+17.0 +15.3 90 +18 +21 1007.9 1008.0
15 6.12 Ю 2 6000 м дымка 8/8 750 м
[Cu Sc]
+15.0 +14.1 94 +15 +15 1008.1 1008.0
18 6.12 СЗ 1 5000 м дымка {гроза, дождь} ясно +14.0 +14.0 100 +14 +14 1010.8 1011.0 +17.8 7
21 6.12 СЗ 1 10 км ясно +12.5 +11.5 94 +12 +12 1011.5 1012.0
00 7.12 С 1 6000 м дымка ясно +11.0 +11.0 100 +11 +11 1011.6 1012.0
03 7.12 СВ 1 4000 м дымка ясно +9.5 +9.5 100 +9 +9 1014.0 1014.0
06 7.12 Ю 2 4000 м дымка 10/10 750 м
[Cu Sc]
+12.8 +12.4 97 +12 +12 1015.3 1015.0 +9.0
09 7.12 Ю 1 10 км 9/9 750 м
[Cu Sc]
+16.4 +14.6 89 +17 +18 1015.0 1015.0
12 7.12 Ю 1 10 км 8/5 900 м
[Cu med, cong Ci fib]
+19.0 +14.5 75 +21 +23 комфорт 1014.4 1014.0
15 7.12 Ю 1 10 км 5/5 1050 м
[Cu hum]
+15.9 +14.6 92 +17 +17 1014.8 1015.0
18 7.12 Ю 2 6000 м дымка 8/8 1050 м
[]
+14.8 +13.9 94 +14 +14 1015.8 1016.0 +19.1
21 7.12 Ю 1 6000 м дымка 8/8 900 м
[Sc]
+14.4 +13.7 96 +15 +15 1015.8 1016.0
03 8.12 Ю 1 5000 м дымка 8/8 1050 м
[Sc]
+13.2 +12.8 97 +13 +13 1016.1 1016.0
06 8.12 Ю 2 7000 м дымка 6/4 750 м
[Cu hum Ac trans]
+15.2 +13.6 90 +15 +16 1018.3 1018.0 +13.0
09 8.12 Ю 1 10 км 8/4 600 м
[Cb calv Ac cuf]
+19.1 +13.9 72 +21 +24 комфорт 1018.5 1019.0
12 8.12 Ю 1 10 км 5/0
[Ac trans Ci fib]
+20.3 +14.3 68 +24 +26 комфорт 1017.7 1018.0
15 8.12 штиль 0 10 км ясно +17.2 +14.9 86 +17 +17 1018.4 1018.0
21 8.12 Ю 2 7000 м дымка 4/0
[Ac trans]
+15.2 +14.5 96 +15 +15 1019.9 1020.0
00 9.12 Ю 2 7000 м дымка 5/0
[Ac trans Ci fib]
+14.8 +13.7 93 +14 +14 1019.7 1020.0
03 9.12 штиль 0 7000 м дымка 5/0
[Ac trans Ci fib]
+13.0 +12.6 97 +12 +12 1019.9 1020.0
06 9.12 Ю 1 10 км 4/1 900 м
[Cu hum Ac trans]
+16.1 +13.8 86 +17 +19 1021.6 1022.0 +12.7
09 9.12 ЮВ 2 10 км 3/3 1050 м
[Cu hum]
+20.7 +13.2 62 +24 +29 комфорт 1020.4 1020.0
12 9.12 штиль 0 10 км ясно +21.7 +13.6 60 +24 +28 комфорт 1019.5 1020.0
15 9.12 штиль 0 10 км ясно +16.4 +12.8 79 +16 +16 1020.0 1020.0
21 9.12 СЗ 2 10 км ясно +13.0 +12.4 96 +12 +12 1020.6 1021.0
00 10.12 СЗ 2 10 км ясно +12.3 +11.7 96 +11 +11 1020.4 1020.0
06 10.12 СЗ 1 900 м туман 3/0
[Ci sp]
+12.0 +12.0 100 +12 +14 1019.4 1019.0 +11.6
09 10.12 СЗ 1 10 км 3/0
[]
+16.5 +13.8 84 +17 +24 1020.3 1020.0
12 10.12 СЗ 2 10 км 3/0
[Ci sp]
+18.0 +14.5 80 +19 +21 1019.2 1019.0
15 10.12 СЗ 1 10 км 4/0
[Ci sp]
+16.0 +14.2 89 +17 +17 1019.6 1020.0
18 10.12 СЗ 1 10 км ясно +14.8 +13.3 91 +15 +15 1020.4 1020.0 +19.0
21 10.12 СЗ 1 10 км ясно +12.0 +11.0 94 +12 +12 1020.5 1021.0
00 11.12 СЗ 1 6000 м дымка ясно +11.0 +11.0 100 +11 +11 1020.6 1021.0
03 11.12 СЗ 2 5000 м дымка ясно +10.0 +10.0 100 +8 +8 1021.1 1021.0
06 11.12 СЗ 1 10 км ясно +13.4 +10.7 84 +14 +16 1022.6 1023.0 +9.5
09 11.12 СЗ 2 10 км ясно +18.0 +11.8 67 +19 +25 1021.8 1022.0
12 11.12 СЗ 1 10 км ясно +19.8 +9.9 53 +22 +25 комфорт 1021.8 1022.0
15 11.12 штиль 0 10 км ясно +16.4 +12.8 79 +16 +16 1022.3 1022.0
18 11.12 штиль 0 10 км ясно +13.7 +12.0 89 +13 +13 1022.9 1023.0 +19.9
21 11.12 штиль 0 10 км ясно +12.2 +11.2 94 +12 +12 1023.0 1023.0
00 12.12 штиль 0 6000 м дымка ясно +11.4 +10.6 95 +11 +11 1022.0 1022.0
03 12.12 штиль 0 6000 м дымка ясно +10.2 +9.8 97 +9 +9 1021.4 1021.0
06 12.12 штиль 0 10 км 5/4 750 м
[Cu hum Ac trans]
+14.5 +11.3 81 +14 +16 1023.6 1024.0 +9.4
09 12.12 штиль 0 10 км 3/3 750 м
[Cu hum]
+20.0 +12.5 62 +22 +28 комфорт 1022.1 1022.0
12 12.12 Ю 2 10 км 3/3 750 м
[Cu hum]
+21.2 +13.0 59 +23 +25 комфорт 1020.4 1020.0
15 12.12 Ю 1 10 км ясно +17.0 +13.6 80 +18 +18 1020.6 1021.0
18 12.12 Ю 2 10 км ясно +14.2 +12.1 87 +14 +14 1020.7 1021.0 +21.6
21 12.12 Ю 2 10 км ясно +13.8 +12.1 89 +13 +13 1020.6 1021.0
00 13.12 Ю 1 8000 м дымка ясно +11.5 +11.1 97 +11 +11 1021.1 1021.0

 

Местоположение метеостанции Azizyah (Ирак): широта 32.92 долгота 45.07 высота над уровнем моря 25 м.

В архиве по умолчанию представлена погода в Azizyah за последнюю неделю. Архивные данные за месяц целиком и за предыдущие месяцы, начиная с января 2011 года, Вы можете получить, выбрав интересующий диапазон дат из раскрывающегося списка и нажав кнопку "Ввод!".


*Определитесь, кто Вы:
робот инопланетянин человек

Внимание! Время в таблицах - всемирное. Для получения местного времени необходимо прибавить поправку, которая в Azizyah равна 3 ч.

Смотрите также архив погоды в соседних городах и на ближайших метеорологических станциях:

Погода в Ayn Al-Tamar (Ирак) (77 км)
Погода в Hella (Ирак) (78 км)
Погода в Ubaydah Bin Al Jarrah (Ирак) (80 км)
Погода в Badrah (Ирак) (84 км)
Погода в Baghdad (Ирак) (86 км)
Погода в Karbalaa (Ирак) (104 км)
Погода в Diwaniya (Ирак) (105 км)
Погода в Al-Khalis (Ирак) (113 км)
Погода в Kut-Al-Hai (Ирак) (124 км)
Погода в Najaf (Ирак) (126 км)

Пояснения к столбцам:

Ветер - указаны скорость ветра в м/с - средняя за 10 мин, порывы в срок и между сроками (в фигурных скобках) и направление, откуда дует ветер: С - северный, СВ - северо-восточный, В - восточный, ЮВ - юго-восточный, Ю - южный, ЮЗ - юго-западный, З - западный, СЗ - северо-западный.
Видимость - горизонтальная дальность видимости в метрах или километрах. При видимости от 1 до 10 км при отсутствии осадков обычно наблюдается дымка, при ухудшении видимости до 1 км и менее - туман. В сухую погоду видимость может ухудшаться дымом, пылью или мглою.
Явления - указаны атмосферные явления, наблюдавшиеся в срок или в последний час перед сроком; фигурными скобками обозначены явления, наблюдавшиеся между сроками (за 1-3 часа до срока); квадратными скобками обозначены град или гололедные отложения с указанием их диаметра в мм.
Облачность - указаны через наклонную черту общая и нижняя облачность в баллах и высота нижней границы облаков в метрах; квадратными скобками обозначены формы облаков: Ci - перистые, Cs - перисто-слоистые, Cc - перисто-кучевые, Ac - высококучевые, As - высокослоистые, Sc - слоисто-кучевые, Ns - слоисто-дождевые, Cu - кучевые, Cb - кучево-дождевые. Подробнее классификацию облаков см. в Атласе облаков (PDF).
T - Температура воздуха - температура, измеренная на высоте 2 м над землей.
Td - Температура точки росы - температура, при понижении до которой содержащийся в воздухе водяной пар достигнет насыщения.
f - Относительная влажность воздуха - влажноcть воздуха, измеренная на высоте 2 м над землей.
Te - Эффективная температура - температура, которую ощущает одетый по сезону человек в тени. Характеристика душности погоды. При расчете учитывается влияние влажности воздуха и скорости ветра на теплоощущения человека.
Tes - Эффективная температура на солнце - температура, которую ощущает человек, с поправкой на солнечный нагрев. Характеристика знойности погоды. Зависит от высоты солнца над горизонтом, облачности и скорости ветра. Ночью, в пасмурную погоду, а также при ветре 12 м/с и более поправка равна нулю.
P - Атмосферное давление - приведенное к уровню моря атмосферное давление.
Po - Атмосферное давление - измеренное на уровне метеостанции атмосферное давление.
Tmin - Минимальная температура - минимум температуры воздуха на высоте 2 м над землей.
Tmax - Максимальная температура - максимум температуры воздуха на высоте 2 м над землей.
R - Количество осадков - Количество выпавших осадков за период времени, мм. При наведении курсора мыши на число - период времени, за который выпало указанное количество осадков.
R24 - Количество осадков - Количество выпавших осадков за 24 часа, мм.
S - Снежный покров - Высота снежного покрова, см. При наведении курсора мыши на число - состояние снежного покрова и степень покрытия местности в баллах.